| time (UTC) | temp F | wind direction | speed MPH | gust MPH | rain 1hr in | rain 24hr in | rain mn in | humidity % | barometer mb |
| 20260504050424 | 55 | 205 | 0.0 | 0.0 | 0.00 | 0.00 | 0.00 | 46 | 1002.7 |
| 20260504045420 | 56 | 203 | 0.0 | 0.0 | 0.00 | 0.00 | 0.00 | 45 | 1002.9 |
| 20260504044507 | 56 | 209 | 0.0 | 2.0 | 0.00 | 0.00 | 0.00 | 44 | 1003.0 |
| 20260504044424 | 56 | 211 | 0.0 | 0.0 | 0.00 | 0.00 | 0.00 | 44 | 1003.0 |
| 20260504043446 | 56 | 211 | 0.0 | 0.0 | 0.00 | 0.00 | 0.00 | 44 | 1003.1 |
| 20260504043115 | 56 | 213 | 0.0 | 2.0 | 0.00 | 0.00 | 0.00 | 43 | 1003.2 |
| 20260504042452 | 57 | 217 | 0.0 | 1.0 | 0.00 | 0.00 | 0.00 | 43 | 1003.2 |
| 20260504041602 | 57 | 232 | 0.0 | 1.0 | 0.00 | 0.00 | 0.00 | 43 | 1003.4 |
| 20260504041506 | 57 | 232 | 0.0 | 0.0 | 0.00 | 0.00 | 0.00 | 43 | 1003.3 |
| 20260504040529 | 57 | 232 | 0.0 | 0.0 | 0.00 | 0.00 | 0.00 | 42 | 1003.5 |
| 20260504040004 | 57 | 278 | 0.0 | 2.0 | 0.00 | 0.00 | 0.00 | 41 | 1003.6 |
| 20260504035513 | 58 | 279 | 0.0 | 1.0 | 0.00 | 0.00 | 0.00 | 41 | 1003.6 |
| 20260504034504 | 58 | 304 | 0.0 | 0.0 | 0.00 | 0.00 | 0.00 | 40 | 1003.8 |
| 20260504034502 | 58 | 304 | 0.0 | 1.0 | 0.00 | 0.00 | 0.00 | 40 | 1003.8 |
| 20260504033528 | 59 | 305 | 0.0 | 0.0 | 0.00 | 0.00 | 0.00 | 40 | 1003.8 |
| 20260504033003 | 58 | 306 | 0.0 | 0.0 | 0.00 | 0.00 | 0.00 | 39 | 1003.9 |
| 20260504032553 | 59 | 306 | 0.0 | 0.0 | 0.00 | 0.00 | 0.00 | 39 | 1003.9 |
| 20260504031603 | 59 | 306 | 0.0 | 1.0 | 0.00 | 0.00 | 0.00 | 38 | 1004.2 |
| 20260504031559 | 60 | 306 | 0.0 | 0.0 | 0.00 | 0.00 | 0.00 | 38 | 1004.1 |
| 20260504030547 | 60 | 288 | 0.0 | 0.0 | 0.00 | 0.00 | 0.00 | 37 | 1004.3 |
| 20260504030002 | 60 | 288 | 0.0 | 1.0 | 0.00 | 0.00 | 0.00 | 37 | 1004.4 |
| 20260504025517 | 61 | 288 | 0.0 | 0.0 | 0.00 | 0.00 | 0.00 | 37 | 1004.4 |
| 20260504024503 | 61 | 288 | 0.0 | 1.0 | 0.00 | 0.00 | 0.00 | 36 | 1004.5 |
| 20260504024456 | 61 | 288 | 0.0 | 0.0 | 0.00 | 0.00 | 0.00 | 36 | 1004.4 |
| 20260504023501 | 62 | 288 | 0.0 | 0.0 | 0.00 | 0.00 | 0.00 | 35 | 1004.3 |
| 20260504023004 | 62 | 288 | 0.0 | 1.0 | 0.00 | 0.00 | 0.00 | 35 | 1004.4 |
| 20260504022521 | 63 | 288 | 0.0 | 0.0 | 0.00 | 0.00 | 0.00 | 35 | 1004.3 |
| 20260504021513 | 63 | 288 | 0.0 | 0.0 | 0.00 | 0.00 | 0.00 | 34 | 1004.2 |
| 20260504021506 | 63 | 288 | 0.0 | 1.0 | 0.00 | 0.00 | 0.00 | 34 | 1004.3 |
| 20260504020108 | 63 | 289 | 0.0 | 2.0 | 0.00 | 0.00 | 0.00 | 34 | 1004.3 |
| 20260504015355 | 64 | 288 | 0.0 | 1.0 | 0.00 | 0.00 | 0.00 | 33 | 1004.2 |
| 20260504014502 | 64 | 290 | 0.0 | 2.0 | 0.00 | 0.00 | 0.00 | 33 | 1004.2 |
| 20260504014339 | 64 | 290 | 0.0 | 0.0 | 0.00 | 0.00 | 0.00 | 33 | 1004.1 |
| 20260504013102 | 64 | 293 | 0.0 | 2.0 | 0.00 | 0.00 | 0.00 | 32 | 1004.2 |
| 20260504012208 | 65 | 291 | 0.0 | 1.0 | 0.00 | 0.00 | 0.00 | 32 | 1004.1 |
| 20260504011503 | 65 | 291 | 0.0 | 2.0 | 0.00 | 0.00 | 0.00 | 31 | 1004.2 |
| 20260504011138 | 66 | 291 | 0.0 | 1.0 | 0.00 | 0.00 | 0.00 | 31 | 1004.1 |
| 20260504010133 | 66 | 292 | 0.0 | 2.0 | 0.00 | 0.00 | 0.00 | 30 | 1004.0 |
| 20260504010105 | 66 | 292 | 1.0 | 3.0 | 0.00 | 0.00 | 0.00 | 30 | 1004.1 |
| 20260504005127 | 67 | 294 | 1.0 | 3.0 | 0.00 | 0.00 | 0.00 | 30 | 1004.0 |
| 20260504004507 | 67 | 296 | 1.0 | 4.0 | 0.00 | 0.00 | 0.00 | 30 | 1004.1 |
| 20260504004118 | 67 | 288 | 1.0 | 3.0 | 0.00 | 0.00 | 0.00 | 30 | 1004.1 |
| 20260504003129 | 68 | 318 | 1.0 | 4.0 | 0.00 | 0.00 | 0.00 | 30 | 1004.1 |
| 20260504003003 | 67 | 294 | 1.0 | 3.0 | 0.00 | 0.00 | 0.00 | 30 | 1004.2 |
| 20260504002153 | 68 | 283 | 1.0 | 7.0 | 0.00 | 0.00 | 0.00 | 30 | 1004.1 |
| 20260504001507 | 68 | 294 | 1.0 | 4.0 | 0.00 | 0.00 | 0.00 | 30 | 1004.3 |
| 20260504001131 | 68 | 298 | 2.0 | 7.0 | 0.00 | 0.00 | 0.00 | 30 | 1004.2 |
| 20260504000141 | 69 | 280 | 1.0 | 5.0 | 0.00 | 0.00 | 0.00 | 30 | 1004.1 |
| 20260504000107 | 68 | 281 | 2.0 | 5.0 | 0.00 | 0.00 | 0.00 | 30 | 1004.2 |
| 20260503235141 | 69 | 300 | 1.0 | 6.0 | 0.00 | 0.00 | 0.00 | 29 | 1004.1 |
| 20260503234502 | 68 | 280 | 1.0 | 6.0 | 0.00 | 0.00 | 0.00 | 29 | 1004.2 |
| 20260503234147 | 69 | 311 | 2.0 | 10.0 | 0.00 | 0.00 | 0.00 | 29 | 1004.2 |
| 20260503233004 | 69 | 292 | 2.0 | 11.0 | 0.00 | 0.00 | 0.00 | 29 | 1004.3 |
| 20260503232041 | 69 | 349 | 2.0 | 7.0 | 0.00 | 0.00 | 0.00 | 29 | 1004.3 |
| 20260503231602 | 69 | 318 | 3.0 | 8.0 | 0.00 | 0.00 | 0.00 | 29 | 1004.5 |
| 20260503231043 | 69 | 308 | 2.0 | 10.0 | 0.00 | 0.00 | 0.00 | 29 | 1004.4 |
| 20260503230040 | 69 | 302 | 3.0 | 10.0 | 0.00 | 0.00 | 0.00 | 29 | 1004.3 |
| 20260503230003 | 69 | 306 | 4.0 | 11.0 | 0.00 | 0.00 | 0.00 | 29 | 1004.4 |
| 20260503224614 | 69 | 285 | 3.0 | 9.0 | 0.00 | 0.00 | 0.00 | 30 | 1004.3 |
| 20260503224004 | 70 | 272 | 1.0 | 8.0 | 0.00 | 0.00 | 0.00 | 30 | 1004.2 |
| 20260503223113 | 69 | 283 | 2.0 | 10.0 | 0.00 | 0.00 | 0.00 | 30 | 1004.2 |
| 20260503222951 | 70 | 290 | 3.0 | 11.0 | 0.00 | 0.00 | 0.00 | 30 | 1004.1 |
| 20260503221947 | 70 | 292 | 3.0 | 11.0 | 0.00 | 0.00 | 0.00 | 30 | 1004.2 |
| 20260503221503 | 69 | 329 | 5.0 | 11.0 | 0.00 | 0.00 | 0.00 | 30 | 1004.2 |
| 20260503220939 | 70 | 316 | 3.0 | 11.0 | 0.00 | 0.00 | 0.00 | 30 | 1004.2 |
| 20260503215933 | 71 | 295 | 2.0 | 11.0 | 0.00 | 0.00 | 0.00 | 31 | 1004.2 |
| 20260503214507 | 70 | 306 | 5.0 | 12.0 | 0.00 | 0.00 | 0.00 | 32 | 1004.3 |
| 20260503213752 | 70 | 319 | 4.0 | 10.0 | 0.00 | 0.00 | 0.00 | 32 | 1004.2 |
| 20260503213002 | 70 | 302 | 6.0 | 11.0 | 0.00 | 0.00 | 0.00 | 32 | 1004.4 |
| 20260503212748 | 71 | 278 | 2.0 | 10.0 | 0.00 | 0.00 | 0.00 | 32 | 1004.2 |
| 20260503211723 | 71 | 300 | 4.0 | 10.0 | 0.00 | 0.00 | 0.00 | 33 | 1004.5 |
| 20260503211603 | 70 | 275 | 5.0 | 11.0 | 0.00 | 0.00 | 0.00 | 33 | 1004.4 |
| 20260503210705 | 71 | 300 | 2.0 | 10.0 | 0.00 | 0.00 | 0.00 | 34 | 1004.3 |
| 20260503210003 | 70 | 300 | 2.0 | 11.0 | 0.00 | 0.00 | 0.00 | 34 | 1004.5 |
| 20260503205724 | 71 | 296 | 3.0 | 10.0 | 0.00 | 0.00 | 0.00 | 34 | 1004.6 |
| 20260503204655 | 71 | 259 | 3.0 | 10.0 | 0.00 | 0.00 | 0.00 | 34 | 1004.6 |
| 20260503204601 | 70 | 292 | 3.0 | 9.0 | 0.00 | 0.00 | 0.00 | 34 | 1004.6 |
| 20260503203102 | 70 | 289 | 4.0 | 11.0 | 0.00 | 0.00 | 0.00 | 34 | 1004.8 |
| 20260503202530 | 71 | 302 | 2.0 | 11.0 | 0.00 | 0.00 | 0.00 | 33 | 1004.7 |
| 20260503201522 | 70 | 304 | 3.0 | 11.0 | 0.00 | 0.00 | 0.00 | 34 | 1004.8 |
| 20260503200534 | 70 | 309 | 4.0 | 12.0 | 0.00 | 0.00 | 0.00 | 34 | 1004.9 |
| 20260503200003 | 70 | 33 | 6.0 | 13.0 | 0.00 | 0.00 | 0.00 | 34 | 1004.8 |
| 20260503195541 | 70 | 25 | 3.0 | 13.0 | 0.00 | 0.00 | 0.00 | 34 | 1004.9 |
| 20260503194624 | 69 | 303 | 7.0 | 14.0 | 0.00 | 0.00 | 0.00 | 35 | 1005.0 |
| 20260503194514 | 70 | 285 | 5.0 | 13.0 | 0.00 | 0.00 | 0.00 | 35 | 1005.0 |
| 20260503193456 | 70 | 286 | 3.0 | 10.0 | 0.00 | 0.00 | 0.00 | 36 | 1005.0 |
| 20260503193112 | 70 | 308 | 5.0 | 11.0 | 0.00 | 0.00 | 0.00 | 36 | 1005.0 |
| 20260503192429 | 70 | 262 | 2.0 | 15.0 | 0.00 | 0.00 | 0.00 | 37 | 1005.0 |
| 20260503191503 | 69 | 292 | 5.0 | 16.0 | 0.00 | 0.00 | 0.00 | 37 | 1005.0 |
| 20260503191437 | 70 | 290 | 5.0 | 15.0 | 0.00 | 0.00 | 0.00 | 37 | 1005.0 |
| 20260503190502 | 70 | 24 | 3.0 | 13.0 | 0.00 | 0.00 | 0.00 | 37 | 1005.1 |
| 20260503190106 | 70 | 5 | 6.0 | 14.0 | 0.00 | 0.00 | 0.00 | 38 | 1005.2 |
| 20260503184504 | 68 | 333 | 3.0 | 11.0 | 0.00 | 0.00 | 0.00 | 40 | 1005.2 |
| 20260503184341 | 69 | 294 | 3.0 | 12.0 | 0.00 | 0.00 | 0.00 | 41 | 1005.2 |
| 20260503183356 | 69 | 302 | 2.0 | 9.0 | 0.00 | 0.00 | 0.00 | 41 | 1005.3 |
| 20260503183002 | 69 | 272 | 1.0 | 10.0 | 0.00 | 0.00 | 0.00 | 42 | 1005.3 |
| 20260503182406 | 69 | 300 | 3.0 | 12.0 | 0.00 | 0.00 | 0.00 | 42 | 1005.3 |
| 20260503181609 | 68 | 268 | 3.0 | 13.0 | 0.00 | 0.00 | 0.00 | 42 | 1005.6 |
| 20260503181402 | 68 | 291 | 3.0 | 12.0 | 0.00 | 0.00 | 0.00 | 42 | 1005.5 |
| 20260503180345 | 68 | 316 | 3.0 | 11.0 | 0.00 | 0.00 | 0.00 | 43 | 1005.5 |
| 20260503175317 | 67 | 323 | 3.0 | 11.0 | 0.00 | 0.00 | 0.00 | 43 | 1005.5 |
| 20260503174621 | 68 | 318 | 3.0 | 14.0 | 0.00 | 0.00 | 0.00 | 44 | 1005.6 |
| 20260503174336 | 68 | 336 | 5.0 | 13.0 | 0.00 | 0.00 | 0.00 | 44 | 1005.5 |
| 20260503173324 | 67 | 301 | 4.0 | 15.0 | 0.00 | 0.00 | 0.00 | 45 | 1005.7 |
| 20260503173112 | 67 | 345 | 4.0 | 15.0 | 0.00 | 0.00 | 0.00 | 45 | 1005.6 |
| 20260503172348 | 67 | 25 | 4.0 | 15.0 | 0.00 | 0.00 | 0.00 | 46 | 1005.6 |
| 20260503171504 | 66 | 289 | 4.0 | 12.0 | 0.00 | 0.00 | 0.00 | 46 | 1005.7 |
| 20260503171412 | 66 | 292 | 3.0 | 10.0 | 0.00 | 0.00 | 0.00 | 46 | 1005.6 |
| 20260503170354 | 65 | 9 | 3.0 | 13.0 | 0.00 | 0.00 | 0.00 | 47 | 1005.6 |
| 20260503170114 | 65 | 344 | 2.0 | 10.0 | 0.00 | 0.00 | 0.00 | 47 | 1005.7 |
| 20260503160139 | 63 | 296 | 1.0 | 6.0 | 0.00 | 0.00 | 0.00 | 50 | 1005.4 |
| 20260503150216 | 60 | 238 | 1.0 | 5.0 | 0.00 | 0.00 | 0.00 | 52 | 1005.5 |
| 20260503150105 | 60 | 288 | 1.0 | 6.0 | 0.00 | 0.00 | 0.00 | 52 | 1005.6 |
| 20260503140103 | 57 | 259 | 1.0 | 10.0 | 0.00 | 0.00 | 0.00 | 54 | 1005.8 |
| 20260503131012 | 55 | 216 | 3.0 | 10.0 | 0.00 | 0.00 | 0.00 | 55 | 1005.8 |
| 20260503130103 | 54 | 208 | 4.0 | 10.0 | 0.00 | 0.00 | 0.00 | 56 | 1005.9 |
| 20260503100104 | 54 | 213 | 7.0 | 14.0 | 0.00 | 0.00 | 0.00 | 51 | 1006.2 |
| 20260503072525 | 55 | 217 | 1.0 | 7.0 | 0.00 | 0.00 | 0.00 | 48 | 1008.8 |
| 20260503071531 | 55 | 245 | 1.0 | 6.0 | 0.00 | 0.00 | 0.00 | 48 | 1008.9 |
| 20260503071503 | 54 | 227 | 1.0 | 7.0 | 0.00 | 0.00 | 0.00 | 48 | 1008.9 |
| 20260503054603 | 55 | 199 | 3.0 | 9.0 | 0.00 | 0.00 | 0.00 | 47 | 1009.9 |
| 20260503054416 | 56 | 198 | 2.0 | 9.0 | 0.00 | 0.00 | 0.00 | 47 | 1009.8 |
| 20260503053437 | 55 | 222 | 1.0 | 6.0 | 0.00 | 0.00 | 0.00 | 47 | 1010.1 |
| 20260503053103 | 55 | 196 | 1.0 | 5.0 | 0.00 | 0.00 | 0.00 | 47 | 1010.1 |
| 20260503052444 | 56 | 218 | 1.0 | 6.0 | 0.00 | 0.00 | 0.00 | 47 | 1010.2 |
| 20260503051502 | 56 | 199 | 1.0 | 6.0 | 0.00 | 0.00 | 0.00 | 46 | 1010.2 |
| 20260503051439 | 56 | 198 | 2.0 | 5.0 | 0.00 | 0.00 | 0.00 | 46 | 1010.2 |